[[{"header":{"parameterUnit":"m.s-1","parameterCategory":1,"la1":30.2992,"la2":30.254,"lo1":-89.0895,"lo2":-89.0443,"dy":0.0025,"dx":0.0025,"nx":19,"ny":19,"refTime":"2026-04-22T09:00:00:Z","depth":0,"parameterNumber":2,"parameterNumberName":"U-component_of_WINDS"},"data":[0,0,0,-5.3862,-5.3865,-5.3977,-5.3977,-5.4136,-5.4138,0,0,0,0,0,0,0,0,0,0,0,-5.3841,-5.3842,-5.3862,-5.3865,-5.3977,-5.3977,-5.4136,-5.4138,0,0,0,0,0,0,0,0,0,0,0,-5.384,-5.3842,-5.3844,-5.3865,-5.3977,-5.3977,-5.4135,-5.4045,0,0,0,0,0,0,0,0,0,0,-5.3933,-5.3926,-5.3842,-5.3844,-5.3866,-5.3977,-5.3977,-5.404,-5.405,-5.4093,0,-5.4137,0,-5.414,-5.415,-5.415,0,0,0,-5.3855,-5.3918,-5.3937,-5.3844,-5.3867,-5.3977,-5.3924,-5.4045,-5.4057,-5.4107,-5.4139,-5.4144,-5.4143,-5.4151,-5.4152,-5.4436,-5.4438,0,0,-5.3849,-5.3867,-5.3929,-5.3945,-5.3933,-5.392,-5.3927,-5.4052,-5.4087,-5.4139,-5.4148,-5.4145,-5.4152,-5.4153,-5.4435,-5.4437,0,0,0,-5.3838,-5.3863,-5.3879,-5.3939,-5.3959,-5.3924,-5.3932,-5.4082,-5.4085,-5.4149,-5.4147,-5.4153,-5.4155,-5.4433,-5.4435,-5.454,0,0,0,-5.3833,-5.3857,-5.3877,-5.3889,-5.3957,-5.4022,-5.3959,-5.4077,-5.409,-5.4147,-5.4153,-5.4157,-5.4431,-5.4434,-5.4533,-5.4585,0,0,0,-5.3829,-5.3856,-5.3877,-5.389,-5.3939,-5.402,-5.4031,-5.4079,-5.409,-5.415,-5.4157,-5.4429,-5.4433,-5.4527,-5.4575,-5.4663,0,0,0,-5.3829,-5.3969,-5.3879,-5.4034,-5.3939,-5.4086,-5.403,-5.4138,-5.4203,-5.4154,-5.4431,-5.4435,-5.4525,-5.4568,-5.4656,-5.4737,-5.4774,0,0,-5.4015,-5.3992,-5.4082,-5.4004,-5.4173,-5.4068,-5.425,-5.4291,-5.4279,-5.4384,-5.4391,-5.4536,-5.4574,-5.4661,-5.4982,-5.5012,0,0,0,-5.4146,-5.421,-5.4251,-5.4315,-5.4352,-5.4386,-5.4398,-5.4413,-5.4501,-5.4338,-5.4593,-5.4615,-5.4666,-5.4703,-5.4728,-5.4768,-5.4455,-5.4454,-5.4454,-5.4432,-5.4411,-5.4557,-5.455,-5.4613,-5.4624,-5.4671,-5.4693,-5.4653,-5.4714,-5.4743,-5.494,-5.4986,-5.5004,-5.5046,-5.4788,-5.4789,-5.4789,-5.4789,-5.4698,-5.4783,-5.473,-5.4851,-5.4828,-5.4928,-5.4945,-5.4913,-5.5001,-5.4917,-5.496,-5.4865,-5.5037,-5.5072,-5.4797,-5.4796,-5.4795,-5.4794,-5.4793,-5.4878,-5.4915,-5.4934,-5.5024,-5.5095,-5.5083,-5.517,-5.5147,-5.5124,-5.5168,-5.5193,-5.5191,-5.5182,-5.5183,-5.5184,-5.5184,-5.5185,-5.5185,-5.5186,-5.5056,-5.5074,-5.5152,-5.5204,-5.5241,-5.5286,-5.53,-5.5335,-5.5367,-5.5342,-5.5342,-5.5293,-5.506,-5.4999,-5.5196,-5.5194,-5.5193,-5.5192,-5.5191,-5.5325,-5.5261,-5.5381,-5.5419,-5.5476,-5.5546,-5.5517,-5.559,-5.5616,-5.5659,-5.5603,-5.5436,-5.5409,-5.5389,-5.5337,-5.561,-5.561,-5.561,-5.561,-5.5473,-5.546,-5.5576,-5.5637,-5.5695,-5.5681,-5.5813,-5.5825,-5.5827,-5.5841,-5.5799,-5.5731,-5.5712,-5.5696,-5.5669,-5.562,-5.5959,-5.596,-5.596,-5.5635,-5.5626,-5.5744,-5.5748,-5.5792,-5.5829,-5.5951,-5.6021,-5.601,-5.5973,-5.585,-5.5835,-5.5725,-5.5692,-5.5646,-5.5605,-5.5516,0,0]},{"header":{"parameterUnit":"m.s-1","parameterCategory":1,"la1":30.2992,"la2":30.254,"lo1":-89.0895,"lo2":-89.0443,"dy":0.0025,"dx":0.0025,"nx":19,"ny":19,"refTime":"2026-04-22T09:00:00:Z","depth":0,"parameterNumber":3,"parameterNumberName":"V-component_of_WINDS"},"data":[0,0,0,3.4249,3.4252,3.4349,3.435,3.4477,3.4478,0,0,0,0,0,0,0,0,0,0,0,3.4223,3.4224,3.4249,3.4252,3.4349,3.435,3.4477,3.4478,0,0,0,0,0,0,0,0,0,0,0,3.4223,3.4224,3.4225,3.4252,3.4349,3.435,3.4477,3.4402,0,0,0,0,0,0,0,0,0,0,3.4306,3.4285,3.4224,3.4225,3.4253,3.4349,3.435,3.4398,3.4406,3.4434,0,3.4461,0,3.4472,3.4487,3.4487,0,0,0,3.4249,3.4278,3.4302,3.4225,3.4254,3.4349,3.4304,3.4403,3.4412,3.4445,3.4463,3.4468,3.4474,3.4488,3.4489,3.4664,3.4665,0,0,3.4244,3.4242,3.4296,3.4309,3.4295,3.4301,3.4308,3.4408,3.4426,3.4463,3.4471,3.4476,3.4489,3.449,3.4664,3.4665,0,0,0,3.423,3.4238,3.426,3.4303,3.4321,3.4304,3.4311,3.4422,3.4429,3.4472,3.4478,3.449,3.4491,3.4663,3.4664,3.471,0,0,0,3.4227,3.423,3.4257,3.4257,3.4319,3.4373,3.4323,3.4422,3.4434,3.4477,3.449,3.4492,3.4662,3.4663,3.4706,3.4731,0,0,0,3.4216,3.4229,3.4244,3.4257,3.4299,3.4371,3.4384,3.4425,3.4438,3.4488,3.4493,3.4661,3.4663,3.4703,3.4726,3.4778,0,0,0,3.4203,3.4281,3.4245,3.4335,3.4298,3.44,3.4384,3.4459,3.4507,3.449,3.4662,3.4664,3.4702,3.4723,3.4775,3.4821,3.484,0,0,3.43,3.4293,3.4346,3.4316,3.4424,3.4385,3.45,3.4544,3.455,3.4626,3.463,3.4708,3.4726,3.4777,3.495,3.4965,0,0,0,3.4376,3.4415,3.4444,3.4491,3.4529,3.4564,3.4592,3.461,3.4675,3.4589,3.474,3.4751,3.4781,3.4804,3.4817,3.4843,3.4674,3.4674,3.4674,3.451,3.4516,3.4604,3.4623,3.4669,3.4699,3.4737,3.4765,3.4754,3.4791,3.4813,3.4917,3.4943,3.4953,3.498,3.4838,3.4838,3.4838,3.4838,3.4653,3.4708,3.4697,3.4779,3.4784,3.4852,3.4885,3.4877,3.4941,3.49,3.4927,3.4881,3.4969,3.4994,3.4842,3.4841,3.4841,3.484,3.484,3.474,3.4768,3.479,3.4861,3.4915,3.4931,3.4994,3.4996,3.4998,3.5025,3.5049,3.5049,3.5048,3.5037,3.5037,3.5038,3.5038,3.5038,3.5038,3.4822,3.4846,3.49,3.495,3.4982,3.5024,3.5058,3.5089,3.5124,3.5121,3.5121,3.5108,3.4978,3.4945,3.5044,3.5043,3.5042,3.5042,3.5041,3.4964,3.4934,3.5017,3.505,3.511,3.5164,3.5168,3.5232,3.5258,3.529,3.5272,3.5176,3.5167,3.5157,3.5129,3.527,3.527,3.527,3.527,3.5038,3.5035,3.5122,3.5175,3.5227,3.5239,3.5334,3.5361,3.5384,3.5401,3.5382,3.5346,3.5335,3.5333,3.5319,3.5293,3.5473,3.5473,3.5473,3.5126,3.5129,3.5209,3.5234,3.5282,3.5323,3.5412,3.5472,3.5492,3.5482,3.5415,3.5406,3.5349,3.533,3.5316,3.5294,3.5247,0,0]}]]